Retour au catalogue

STARLINK-32528

ActifCommunicationsVLEO
NORAD 61724·PAYLOAD·🇺🇸 United States

Lancé Oct 30, 2024 depuis Cape Canaveral Space Force Station

Loading…

Prochains Passages (prochaines 24 heures)

TLE

FraisSource: CelesTrak SupGP

Époque: Sep 15, 2026, 02:50 UTC

1 61724C 24196T   26258.11854167  .00023534  00000+0  69517-3 0  2583
2 61724  53.1579 298.6325 0001275  91.0976 100.1886 15.34385443    19

Suivez STARLINK-32528 en temps réel avec AllMySat

Download on the App Store